Pagina principală
METAR-TAF:

METAR-TAF

Aeroporturi :

Lae, Papua-Noua Guinee

Latitudine: 6-34-11S, longitudine: 146-43-34E, elevație: 73 m

Observații meteo curente

Raportul a fost făcut în urmă cu 2 ore și 0 de minute, la 01:00 UTC
Vânt 5 kt de la Est/Sud-est
Temperatură 29°C
Umiditate 70%
Presiune 1009 hPa
Vizibilitate de 10 km sau mai mult
Nori împrăștiați la o înălțime de 3000 picior
Nori împrăștiați la o înălțime de 5000 picior

METAR: AYNZ 020100Z 12005KT 9999 SCT030 SCT050 29/23 Q1009

Ora: 13:00 (03:00 UTC)


TAF: lipsă

Observații și prognoze meteo pentru peste 4.000 de aeroporturi (rapoarte METAR și TAF).

Stațiile disponibile sunt reprezentate pe hartă prin puncte galbene și roșii.

Țineți indicatorul mouse-ului pe punctul dorit pentru a vedea denumirea stației.

Apoi, faceți clic pentru a vedea observațiile și prognozele meteorologice.

Pentru a schimba harta: Pentru mărire, faceți clic pe butoanele verzi cu cruce neagră; pentru micșorare, pe butonul verde cu o liniuță; pentru hărți învecinate, pe săgețile verzi.


METAR-TAF: